Location: Parc National du Mont-Orford
(45.3122°N, 72.2403°W)
Time: 07:59:30
(UTC-04:00)

Envisat - Pass Details

Date: 30 January 2018
Orbit: 764 x 766 km, 98.2° (Epoch: 22 May)

Event Time Altitude Azimuth Distance (km) Brightness Sun altitude
Exits shadow 20:55:25 13° 268° (W) 2,102 5.8 -42.3°
Maximum altitude 20:55:49 13° 272° (W) 2,097 5.8 -42.4°
Drops below altitude 10° 20:58:07 10° 300° (WNW) 2,306 6.1 -42.7°
Sets 21:01:49 0° 327° (NNW) 3,239 6.8 -43.3°
